Time,TemperatureF,DewpointF,PressureIn,WindDirection,WindDirectionDegrees,WindSpeedMPH,WindSpeedGustMPH,Humidity,HourlyPrecipIn,Conditions,Clouds,dailyrainin,SoftwareType,DateUTC
2013-06-05 00:02:00,78.4,73.5,29.84,ESE,106,8.1,8.1,85,0.00,CLR,,0.00,WeatherDisplay:10.37,2013-06-05 05:02:00,
2013-06-05 00:07:00,78.4,73.5,29.84,SE,127,9.2,9.2,85,0.00,CLR,,0.00,WeatherDisplay:10.37,2013-06-05 05:07:00,
2013-06-05 00:12:00,78.2,73.7,29.84,SE,127,5.8,5.8,86,0.00,CLR,,0.00,WeatherDisplay:10.37,2013-06-05 05:12:00,
2013-06-05 00:17:00,78.3,73.8,29.84,SE,129,6.9,6.9,86,0.00,CLR,,0.00,WeatherDisplay:10.37,2013-06-05 05:17:00,
2013-06-05 00:22:00,78.6,74.1,29.84,SE,140,12.7,12.7,86,0.00,CLR,,0.00,WeatherDisplay:10.37,2013-06-05 05:22:00,
2013-06-05 00:27:00,78.6,73.4,29.84,SE,127,11.5,11.5,84,0.00,CLR,,0.00,WeatherDisplay:10.37,2013-06-05 05:27:00,
2013-06-05 00:32:00,78.7,73.5,29.84,ESE,120,3.5,3.5,84,0.00,CLR,,0.00,WeatherDisplay:10.37,2013-06-05 05:32:00,
2013-06-05 00:37:00,78.6,73.7,29.84,SSE,148,6.9,6.9,85,0.00,CLR,,0.00,WeatherDisplay:10.37,2013-06-05 05:37:00,
2013-06-05 00:42:00,78.6,73.7,29.84,SSE,147,5.8,5.8,85,0.00,CLR,,0.00,WeatherDisplay:10.37,2013-06-05 05:42:00,
2013-06-05 00:47:00,78.6,73.7,29.84,SE,127,10.4,10.4,85,0.00,CLR,,0.00,WeatherDisplay:10.37,2013-06-05 05:47:00,
2013-06-05 00:52:00,78.5,73.6,29.84,SE,143,5.8,5.8,85,0.00,CLR,,0.00,WeatherDisplay:10.37,2013-06-05 05:52:00,
2013-06-05 00:57:00,78.4,73.9,29.84,ESE,116,11.5,11.5,86,0.00,CLR,,0.00,WeatherDisplay:10.37,2013-06-05 05:57:00,
2013-06-05 01:02:00,78.5,73.6,29.84,ESE,119,11.5,11.5,85,0.00,CLR,,0.00,WeatherDisplay:10.37,2013-06-05 06:02:00,
2013-06-05 01:07:00,78.5,73.6,29.84,SE,143,8.1,8.1,85,0.00,CLR,,0.00,WeatherDisplay:10.37,2013-06-05 06:07:00,
2013-06-05 01:12:00,78.6,74.1,29.83,SE,143,13.8,13.8,86,0.00,CLR,,0.00,WeatherDisplay:10.37,2013-06-05 06:12:00,
2013-06-05 01:17:00,78.7,74.2,29.83,SE,127,6.9,6.9,86,0.00,CLR,,0.00,WeatherDisplay:10.37,2013-06-05 06:17:00,
2013-06-05 01:22:00,78.7,74.5,29.83,SE,145,10.4,10.4,87,0.00,CLR,,0.00,WeatherDisplay:10.37,2013-06-05 06:22:00,
2013-06-05 01:27:00,78.7,74.5,29.83,SSE,150,5.8,5.8,87,0.00,CLR,,0.00,WeatherDisplay:10.37,2013-06-05 06:27:00,
2013-06-05 01:32:00,78.5,74.3,29.83,SE,127,7.4,7.4,87,0.00,CLR,,0.00,WeatherDisplay:10.37,2013-06-05 06:32:00,
2013-06-05 01:37:00,78.3,74.1,29.83,SE,141,6.9,6.9,87,0.00,CLR,,0.00,WeatherDisplay:10.37,2013-06-05 06:37:00,
2013-06-05 01:42:00,78.3,74.5,29.83,ESE,109,12.7,12.7,88,0.00,CLR,,0.00,WeatherDisplay:10.37,2013-06-05 06:42:00,
2013-06-05 01:47:00,78.3,74.1,29.83,SE,131,8.1,8.1,87,0.00,CLR,,0.00,WeatherDisplay:10.37,2013-06-05 06:47:00,
2013-06-05 01:52:00,78.2,74.0,29.83,SSE,160,9.2,9.2,87,0.00,CLR,,0.00,WeatherDisplay:10.37,2013-06-05 06:52:00,
2013-06-05 01:57:00,78.1,74.3,29.83,ESE,110,6.9,6.9,88,0.00,CLR,,0.00,WeatherDisplay:10.37,2013-06-05 06:57:00,
2013-06-05 02:02:00,78.0,74.2,29.82,ESE,116,5.8,5.8,88,0.00,CLR,,0.00,WeatherDisplay:10.37,2013-06-05 07:02:00,
2013-06-05 02:07:00,77.9,74.4,29.82,SE,146,6.9,6.9,89,0.00,CLR,,0.00,WeatherDisplay:10.37,2013-06-05 07:07:00,
2013-06-05 02:12:00,77.9,74.4,29.82,SE,133,5.8,5.8,89,0.00,CLR,,0.00,WeatherDisplay:10.37,2013-06-05 07:12:00,
2013-06-05 02:17:00,77.9,74.4,29.82,ESE,111,10.4,10.4,89,0.00,CLR,,0.00,WeatherDisplay:10.37,2013-06-05 07:17:00,
2013-06-05 02:22:00,77.9,74.4,29.82,SE,138,10.4,10.4,89,0.00,CLR,,0.00,WeatherDisplay:10.37,2013-06-05 07:22:00,
2013-06-05 02:27:00,78.0,74.5,29.82,SE,144,9.2,9.2,89,0.00,CLR,,0.00,WeatherDisplay:10.37,2013-06-05 07:27:00,
2013-06-05 02:32:00,78.0,74.8,29.82,SE,127,5.8,5.8,90,0.00,CLR,,0.00,WeatherDisplay:10.37,2013-06-05 07:32:00,
2013-06-05 02:37:00,77.9,74.7,29.82,SE,131,6.9,6.9,90,0.00,CLR,,0.00,WeatherDisplay:10.37,2013-06-05 07:37:00,
2013-06-05 02:42:00,77.9,74.7,29.82,SE,138,6.9,6.9,90,0.00,CLR,,0.00,WeatherDisplay:10.37,2013-06-05 07:42:00,
2013-06-05 02:47:00,77.9,74.7,29.82,ESE,113,5.8,5.8,90,0.00,CLR,,0.00,WeatherDisplay:10.37,2013-06-05 07:47:00,
2013-06-05 02:52:00,78.0,74.8,29.82,SSE,155,6.9,6.9,90,0.00,CLR,,0.00,WeatherDisplay:10.37,2013-06-05 07:52:00,
2013-06-05 02:57:00,78.1,74.9,29.82,SSE,156,5.8,5.8,90,0.00,CLR,,0.00,WeatherDisplay:10.37,2013-06-05 07:57:00,
2013-06-05 03:02:00,78.1,74.9,29.82,SE,145,4.6,4.6,90,0.00,CLR,,0.00,WeatherDisplay:10.37,2013-06-05 08:02:00,
2013-06-05 03:07:00,78.1,74.9,29.82,SSE,156,5.8,5.8,90,0.00,CLR,,0.00,WeatherDisplay:10.37,2013-06-05 08:07:00,
2013-06-05 03:12:00,78.1,74.9,29.82,ESE,105,5.8,5.8,90,0.00,CLR,,0.00,WeatherDisplay:10.37,2013-06-05 08:12:00,
2013-06-05 03:17:00,78.0,74.8,29.82,SSE,163,7.4,7.4,90,0.00,CLR,,0.00,WeatherDisplay:10.37,2013-06-05 08:17:00,
2013-06-05 03:22:00,78.0,74.8,29.81,SSE,160,5.8,5.8,90,0.00,CLR,,0.00,WeatherDisplay:10.37,2013-06-05 08:22:00,
2013-06-05 03:27:00,78.1,74.9,29.82,ESE,120,5.8,5.8,90,0.00,CLR,,0.00,WeatherDisplay:10.37,2013-06-05 08:27:00,
2013-06-05 03:32:00,78.1,74.9,29.82,SSE,154,10.4,10.4,90,0.00,CLR,,0.00,WeatherDisplay:10.37,2013-06-05 08:32:00,
2013-06-05 03:37:00,78.1,74.9,29.81,SSE,150,5.8,5.8,90,0.00,CLR,,0.00,WeatherDisplay:10.37,2013-06-05 08:37:00,
2013-06-05 03:42:00,78.1,74.9,29.81,South,172,5.8,5.8,90,0.00,CLR,,0.00,WeatherDisplay:10.37,2013-06-05 08:42:00,
2013-06-05 03:47:00,78.0,74.8,29.81,SE,136,4.6,4.6,90,0.00,CLR,,0.00,WeatherDisplay:10.37,2013-06-05 08:47:00,
2013-06-05 03:52:00,77.9,74.7,29.80,SSE,155,5.8,5.8,90,0.00,CLR,,0.00,WeatherDisplay:10.37,2013-06-05 08:52:00,
2013-06-05 03:57:00,77.9,75.1,29.80,SSE,149,5.8,5.8,91,0.00,CLR,,0.00,WeatherDisplay:10.37,2013-06-05 08:57:00,
2013-06-05 04:02:00,77.9,75.1,29.80,SE,146,3.5,3.5,91,0.00,CLR,,0.00,WeatherDisplay:10.37,2013-06-05 09:02:00,
2013-06-05 04:07:00,77.8,75.0,29.80,SE,126,5.8,5.8,91,0.00,CLR,,0.00,WeatherDisplay:10.37,2013-06-05 09:07:00,
2013-06-05 04:12:00,77.7,74.9,29.80,SSE,156,4.6,4.6,91,0.00,CLR,,0.00,WeatherDisplay:10.37,2013-06-05 09:12:00,
2013-06-05 04:17:00,77.7,74.9,29.80,ESE,102,5.8,5.8,91,0.00,CLR,,0.00,WeatherDisplay:10.37,2013-06-05 09:17:00,
2013-06-05 04:22:00,77.7,74.9,29.80,SE,144,5.8,5.8,91,0.00,CLR,,0.00,WeatherDisplay:10.37,2013-06-05 09:22:00,
2013-06-05 04:27:00,77.7,74.9,29.80,SE,131,5.8,5.8,91,0.00,CLR,,0.00,WeatherDisplay:10.37,2013-06-05 09:27:00,
2013-06-05 04:32:00,77.7,74.9,29.80,South,169,3.5,3.5,91,0.00,CLR,,0.00,WeatherDisplay:10.37,2013-06-05 09:32:00,
2013-06-05 04:37:00,77.6,74.8,29.80,SSE,152,4.6,4.6,91,0.00,CLR,,0.00,WeatherDisplay:10.37,2013-06-05 09:37:00,
2013-06-05 04:42:00,77.6,74.8,29.80,SSE,153,6.9,6.9,91,0.00,CLR,,0.00,WeatherDisplay:10.37,2013-06-05 09:42:00,
2013-06-05 04:47:00,77.6,74.8,29.80,SSE,147,5.8,5.8,91,0.00,CLR,,0.00,WeatherDisplay:10.37,2013-06-05 09:47:00,
2013-06-05 04:52:00,77.6,74.8,29.80,SSE,153,4.6,4.6,91,0.00,CLR,,0.00,WeatherDisplay:10.37,2013-06-05 09:52:00,
2013-06-05 04:57:00,77.5,74.7,29.80,SSE,161,4.6,4.6,91,0.00,CLR,,0.00,WeatherDisplay:10.37,2013-06-05 09:57:00,
2013-06-05 05:02:00,77.5,75.0,29.80,SSE,168,3.5,3.5,92,0.00,CLR,,0.00,WeatherDisplay:10.37,2013-06-05 10:02:00,
2013-06-05 05:07:00,77.5,75.0,29.80,South,178,3.5,3.5,92,0.00,CLR,,0.00,WeatherDisplay:10.37,2013-06-05 10:07:00,
2013-06-05 05:12:00,77.5,75.0,29.80,SSE,154,5.8,5.8,92,0.00,CLR,,0.00,WeatherDisplay:10.37,2013-06-05 10:12:00,
2013-06-05 05:17:00,77.4,74.6,29.80,SSE,157,3.5,3.5,91,0.00,CLR,,0.00,WeatherDisplay:10.37,2013-06-05 10:17:00,
2013-06-05 05:22:00,77.4,74.6,29.80,South,178,1.1,0.0,91,0.00,CLR,,0.00,WeatherDisplay:10.37,2013-06-05 10:22:00,
2013-06-05 05:27:00,77.2,74.4,29.80,South,178,2.3,2.3,91,0.00,CLR,,0.00,WeatherDisplay:10.37,2013-06-05 10:27:00,
2013-06-05 05:32:00,77.0,74.5,29.80,South,178,1.1,1.1,92,0.00,CLR,,0.00,WeatherDisplay:10.37,2013-06-05 10:32:00,
2013-06-05 05:37:00,76.9,74.4,29.80,South,188,1.1,1.1,92,0.00,CLR,,0.00,WeatherDisplay:10.37,2013-06-05 10:37:00,
2013-06-05 05:42:00,76.8,74.3,29.80,South,169,3.5,3.5,92,0.00,CLR,,0.00,WeatherDisplay:10.37,2013-06-05 10:42:00,
2013-06-05 05:47:00,76.8,74.3,29.80,South,169,2.3,2.3,92,0.00,CLR,,0.00,WeatherDisplay:10.37,2013-06-05 10:47:00,
2013-06-05 05:52:00,76.7,74.5,29.80,South,169,0.0,0.0,93,0.00,CLR,,0.00,WeatherDisplay:10.37,2013-06-05 10:52:00,
2013-06-05 05:57:00,76.6,74.4,29.80,South,169,1.1,1.1,93,0.00,CLR,,0.00,WeatherDisplay:10.37,2013-06-05 10:57:00,
2013-06-05 06:02:00,76.5,74.3,29.80,South,169,1.1,0.0,93,0.00,CLR,,0.00,WeatherDisplay:10.37,2013-06-05 11:02:00,
2013-06-05 06:07:00,76.4,74.2,29.80,South,169,1.1,1.1,93,0.00,CLR,,0.00,WeatherDisplay:10.37,2013-06-05 11:07:00,
2013-06-05 06:12:00,76.3,74.1,29.80,South,183,2.3,0.0,93,0.00,CLR,,0.00,WeatherDisplay:10.37,2013-06-05 11:12:00,
2013-06-05 06:17:00,76.2,74.0,29.80,South,184,2.3,2.3,93,0.00,CLR,,0.00,WeatherDisplay:10.37,2013-06-05 11:17:00,
2013-06-05 06:22:00,76.1,73.9,29.79,South,183,1.1,1.1,93,0.00,CLR,,0.00,WeatherDisplay:10.37,2013-06-05 11:22:00,
2013-06-05 06:27:00,76.1,73.9,29.79,South,183,2.3,2.3,93,0.00,CLR,,0.00,WeatherDisplay:10.37,2013-06-05 11:27:00,
2013-06-05 06:32:00,76.0,74.1,29.79,South,184,0.0,0.1,94,0.00,CLR,,0.00,WeatherDisplay:10.37,2013-06-05 11:32:00,
2013-06-05 06:37:00,75.9,74.0,29.79,South,184,1.1,1.1,94,0.00,CLR,,0.00,WeatherDisplay:10.37,2013-06-05 11:37:00,
2013-06-05 06:42:00,75.9,74.0,29.79,South,184,1.1,1.1,94,0.00,CLR,,0.00,WeatherDisplay:10.37,2013-06-05 11:42:00,
2013-06-05 06:47:00,75.8,73.9,29.80,South,184,0.0,0.3,94,0.00,CLR,,0.00,WeatherDisplay:10.37,2013-06-05 11:47:00,
2013-06-05 06:52:00,75.8,73.9,29.80,South,184,1.1,1.1,94,0.00,CLR,,0.00,WeatherDisplay:10.37,2013-06-05 11:52:00,
2013-06-05 06:57:00,75.8,73.9,29.80,South,184,0.0,0.0,94,0.00,CLR,,0.00,WeatherDisplay:10.37,2013-06-05 11:57:00,
2013-06-05 07:02:00,75.8,73.9,29.81,South,184,0.0,0.0,94,0.00,CLR,,0.00,WeatherDisplay:10.37,2013-06-05 12:02:00,
2013-06-05 07:07:00,75.8,73.9,29.81,South,184,0.0,0.0,94,0.00,CLR,,0.00,WeatherDisplay:10.37,2013-06-05 12:07:00,
2013-06-05 07:12:00,75.7,73.8,29.81,South,184,0.0,0.0,94,0.00,CLR,,0.00,WeatherDisplay:10.37,2013-06-05 12:12:00,
2013-06-05 07:17:00,75.7,73.8,29.81,South,184,0.0,0.0,94,0.00,CLR,,0.00,WeatherDisplay:10.37,2013-06-05 12:17:00,
2013-06-05 07:22:00,75.7,73.8,29.82,South,184,0.0,0.0,94,0.00,CLR,,0.00,WeatherDisplay:10.37,2013-06-05 12:22:00,
2013-06-05 07:27:00,75.9,74.4,29.82,South,184,0.0,0.0,95,0.00,CLR,,0.00,WeatherDisplay:10.37,2013-06-05 12:27:00,
2013-06-05 07:32:00,76.2,74.7,29.82,South,184,0.0,0.0,95,0.00,CLR,,0.00,WeatherDisplay:10.37,2013-06-05 12:32:00,
2013-06-05 07:37:00,76.7,75.2,29.82,South,184,0.0,0.2,95,0.00,CLR,,0.00,WeatherDisplay:10.37,2013-06-05 12:37:00,
2013-06-05 07:42:00,77.3,75.4,29.82,South,184,0.0,0.0,94,0.00,CLR,,0.00,WeatherDisplay:10.37,2013-06-05 12:42:00,
2013-06-05 07:47:00,77.9,76.0,29.82,South,184,2.3,2.3,94,0.00,CLR,,0.00,WeatherDisplay:10.37,2013-06-05 12:47:00,
2013-06-05 07:52:00,78.5,76.3,29.82,South,184,1.1,1.1,93,0.00,CLR,,0.00,WeatherDisplay:10.37,2013-06-05 12:52:00,
2013-06-05 07:58:00,79.0,76.1,29.82,SSW,204,4.6,4.6,91,0.00,CLR,,0.00,WeatherDisplay:10.37,2013-06-05 12:58:00,
2013-06-05 08:03:00,79.5,76.3,29.82,SSW,202,3.5,3.5,90,0.00,CLR,,0.00,WeatherDisplay:10.37,2013-06-05 13:03:00,
2013-06-05 08:08:00,80.0,76.5,29.82,SSW,203,3.5,3.5,89,0.00,CLR,,0.00,WeatherDisplay:10.37,2013-06-05 13:08:00,
2013-06-05 08:13:00,80.5,76.3,29.82,SSW,205,3.5,3.5,87,0.00,CLR,,0.00,WeatherDisplay:10.37,2013-06-05 13:13:00,
2013-06-05 08:18:00,81.0,76.4,29.82,SSW,195,5.8,5.8,86,0.00,CLR,,0.00,WeatherDisplay:10.37,2013-06-05 13:18:00,
2013-06-05 08:23:00,81.2,75.9,29.82,SSW,194,4.6,4.6,84,0.00,CLR,,0.00,WeatherDisplay:10.37,2013-06-05 13:23:00,
2013-06-05 08:28:00,81.4,76.1,29.82,South,172,4.6,4.6,84,0.00,CLR,,0.00,WeatherDisplay:10.37,2013-06-05 13:28:00,
2013-06-05 08:33:00,81.5,75.5,29.82,SSW,207,3.5,3.5,82,0.00,CLR,,0.00,WeatherDisplay:10.37,2013-06-05 13:33:00,
2013-06-05 08:38:00,81.6,75.6,29.82,South,176,5.8,5.8,82,0.00,CLR,,0.00,WeatherDisplay:10.37,2013-06-05 13:38:00,
2013-06-05 08:43:00,81.8,75.8,29.82,SSE,159,3.5,3.5,82,0.00,CLR,,0.00,WeatherDisplay:10.37,2013-06-05 13:43:00,
2013-06-05 08:48:00,81.9,75.5,29.82,SSE,159,5.8,5.8,81,0.00,CLR,,0.00,WeatherDisplay:10.37,2013-06-05 13:48:00,
2013-06-05 08:53:00,82.2,75.8,29.82,SSW,205,3.5,3.5,81,0.00,CLR,,0.00,WeatherDisplay:10.37,2013-06-05 13:53:00,
2013-06-05 08:58:00,82.2,75.0,29.82,WSW,243,5.8,5.8,79,0.00,CLR,,0.00,WeatherDisplay:10.37,2013-06-05 13:58:00,
2013-06-05 09:03:00,82.2,75.4,29.82,SE,134,5.8,5.8,80,0.00,CLR,,0.00,WeatherDisplay:10.37,2013-06-05 14:03:00,
2013-06-05 09:08:00,82.0,75.2,29.82,SSE,160,4.6,4.6,80,0.00,CLR,,0.00,WeatherDisplay:10.37,2013-06-05 14:08:00,
2013-06-05 09:13:00,82.1,75.3,29.82,SSE,166,5.8,5.8,80,0.00,CLR,,0.00,WeatherDisplay:10.37,2013-06-05 14:13:00,
2013-06-05 09:18:00,82.4,75.2,29.82,SSW,193,3.5,3.5,79,0.00,CLR,,0.00,WeatherDisplay:10.37,2013-06-05 14:18:00,
2013-06-05 09:23:00,82.9,75.3,29.82,SSW,200,3.5,3.5,78,0.00,CLR,,0.00,WeatherDisplay:10.37,2013-06-05 14:23:00,
2013-06-05 09:28:00,83.5,75.9,29.82,WSW,238,4.6,4.6,78,0.00,CLR,,0.00,WeatherDisplay:10.37,2013-06-05 14:28:00,
2013-06-05 09:33:00,83.7,75.3,29.82,South,190,3.5,3.5,76,0.00,CLR,,0.00,WeatherDisplay:10.37,2013-06-05 14:33:00,
2013-06-05 09:38:00,84.0,75.6,29.83,ESE,117,4.6,4.6,76,0.00,CLR,,0.00,WeatherDisplay:10.37,2013-06-05 14:38:00,
2013-06-05 09:43:00,84.2,76.2,29.83,SE,143,5.8,5.8,77,0.00,CLR,,0.00,WeatherDisplay:10.37,2013-06-05 14:43:00,
2013-06-05 09:48:00,84.6,76.2,29.83,SSW,192,3.5,3.5,76,0.00,CLR,,0.00,WeatherDisplay:10.37,2013-06-05 14:48:00,
2013-06-05 09:53:00,85.2,76.8,29.82,SE,145,9.2,9.2,76,0.00,CLR,,0.00,WeatherDisplay:10.37,2013-06-05 14:53:00,
2013-06-05 09:58:00,85.3,76.1,29.83,SE,127,6.9,6.9,74,0.00,CLR,,0.00,WeatherDisplay:10.37,2013-06-05 14:58:00,
2013-06-05 10:03:00,84.8,76.0,29.83,SE,137,4.6,4.6,75,0.00,CLR,,0.00,WeatherDisplay:10.37,2013-06-05 15:03:00,
2013-06-05 10:08:00,85.0,75.4,29.83,SE,130,5.8,5.8,73,0.00,CLR,,0.00,WeatherDisplay:10.37,2013-06-05 15:08:00,
2013-06-05 10:13:00,84.9,76.1,29.83,ESE,112,9.2,9.2,75,0.00,CLR,,0.00,WeatherDisplay:10.37,2013-06-05 15:13:00,
2013-06-05 10:18:00,85.0,75.8,29.83,SSE,162,5.8,5.8,74,0.00,CLR,,0.00,WeatherDisplay:10.37,2013-06-05 15:18:00,
2013-06-05 10:23:00,85.0,75.8,29.83,SE,134,6.9,6.9,74,0.00,CLR,,0.00,WeatherDisplay:10.37,2013-06-05 15:23:00,
2013-06-05 10:28:00,85.2,75.6,29.83,SSW,210,2.3,2.3,73,0.00,CLR,,0.00,WeatherDisplay:10.37,2013-06-05 15:28:00,
2013-06-05 10:33:00,85.7,75.6,29.83,SSW,197,6.9,6.9,72,0.00,CLR,,0.00,WeatherDisplay:10.37,2013-06-05 15:33:00,
2013-06-05 10:38:00,85.5,75.4,29.83,SSE,153,5.8,5.8,72,0.00,CLR,,0.00,WeatherDisplay:10.37,2013-06-05 15:38:00,
2013-06-05 10:43:00,84.9,75.3,29.83,SE,143,5.8,5.8,73,0.00,CLR,,0.00,WeatherDisplay:10.37,2013-06-05 15:43:00,
2013-06-05 10:48:00,85.1,75.9,29.83,SE,138,9.2,9.2,74,0.00,CLR,,0.00,WeatherDisplay:10.37,2013-06-05 15:48:00,
2013-06-05 10:53:00,85.1,75.9,29.83,SE,134,5.8,5.8,74,0.00,CLR,,0.00,WeatherDisplay:10.37,2013-06-05 15:53:00,
2013-06-05 10:58:00,85.4,75.8,29.83,ESE,103,5.8,5.8,73,0.00,CLR,,0.00,WeatherDisplay:10.37,2013-06-05 15:58:00,
2013-06-05 11:03:00,85.2,75.1,29.83,SE,133,9.2,9.2,72,0.00,CLR,,0.00,WeatherDisplay:10.37,2013-06-05 16:03:00,
2013-06-05 11:08:00,85.1,75.1,29.83,ENE,78,4.6,4.6,72,0.00,CLR,,0.00,WeatherDisplay:10.37,2013-06-05 16:08:00,
2013-06-05 11:13:00,84.8,75.6,29.83,SE,144,5.8,5.8,74,0.00,CLR,,0.00,WeatherDisplay:10.37,2013-06-05 16:13:00,
2013-06-05 11:18:00,85.2,74.3,29.83,ESE,116,4.6,4.6,70,0.00,CLR,,0.00,WeatherDisplay:10.37,2013-06-05 16:18:00,
2013-06-05 11:23:00,85.5,75.0,29.83,East,101,9.2,9.2,71,0.00,CLR,,0.00,WeatherDisplay:10.37,2013-06-05 16:23:00,
2013-06-05 11:28:00,85.0,75.8,29.83,SSE,162,5.8,5.8,74,0.00,CLR,,0.00,WeatherDisplay:10.37,2013-06-05 16:28:00,
2013-06-05 11:33:00,85.1,75.5,29.83,SSE,155,4.6,4.6,73,0.00,CLR,,0.00,WeatherDisplay:10.37,2013-06-05 16:33:00,
2013-06-05 11:38:00,85.0,75.8,29.83,SE,146,5.8,5.8,74,0.00,CLR,,0.00,WeatherDisplay:10.37,2013-06-05 16:38:00,
2013-06-05 11:43:00,84.6,75.4,29.83,ENE,65,6.9,6.9,74,0.00,CLR,,0.00,WeatherDisplay:10.37,2013-06-05 16:43:00,
2013-06-05 11:48:00,85.2,75.6,29.83,ESE,103,5.8,5.8,73,0.00,CLR,,0.00,WeatherDisplay:10.37,2013-06-05 16:48:00,
2013-06-05 11:53:00,85.9,76.2,29.83,ESE,102,5.8,5.8,73,0.00,CLR,,0.00,WeatherDisplay:10.37,2013-06-05 16:53:00,
2013-06-05 11:58:00,85.9,75.4,29.83,SE,139,9.2,9.2,71,0.00,CLR,,0.00,WeatherDisplay:10.37,2013-06-05 16:58:00,
2013-06-05 12:03:00,86.3,76.6,29.83,ESE,117,5.8,5.8,73,0.00,CLR,,0.00,WeatherDisplay:10.37,2013-06-05 17:03:00,
2013-06-05 12:08:00,86.6,75.2,29.83,SSE,148,9.2,9.2,69,0.00,CLR,,0.00,WeatherDisplay:10.37,2013-06-05 17:08:00,
2013-06-05 12:13:00,86.7,75.7,29.83,East,95,6.9,6.9,70,0.00,CLR,,0.00,WeatherDisplay:10.37,2013-06-05 17:13:00,
2013-06-05 12:18:00,86.7,75.3,29.83,ESE,107,5.8,5.8,69,0.00,CLR,,0.00,WeatherDisplay:10.37,2013-06-05 17:18:00,
2013-06-05 12:23:00,87.1,74.8,29.83,ENE,65,5.8,5.8,67,0.00,CLR,,0.00,WeatherDisplay:10.37,2013-06-05 17:23:00,
2013-06-05 12:28:00,87.1,74.4,29.83,SE,133,10.4,10.4,66,0.00,CLR,,0.00,WeatherDisplay:10.37,2013-06-05 17:28:00,
2013-06-05 12:33:00,87.1,74.8,29.83,SE,141,3.5,3.5,67,0.00,CLR,,0.00,WeatherDisplay:10.37,2013-06-05 17:33:00,
2013-06-05 12:38:00,87.4,75.1,29.83,ESE,102,9.2,9.2,67,0.00,CLR,,0.00,WeatherDisplay:10.37,2013-06-05 17:38:00,
2013-06-05 12:43:00,87.1,74.8,29.83,East,86,6.9,6.9,67,0.00,CLR,,0.00,WeatherDisplay:10.37,2013-06-05 17:43:00,
2013-06-05 12:48:00,86.9,75.1,29.83,ESE,108,5.8,5.8,68,0.00,CLR,,0.00,WeatherDisplay:10.37,2013-06-05 17:48:00,
2013-06-05 12:53:00,87.1,75.3,29.83,SE,143,6.3,6.3,68,0.00,CLR,,0.00,WeatherDisplay:10.37,2013-06-05 17:53:00,
2013-06-05 12:58:00,87.0,76.0,29.83,SE,125,5.8,5.8,70,0.00,CLR,,0.00,WeatherDisplay:10.37,2013-06-05 17:58:00,
2013-06-05 13:03:00,86.5,75.5,29.83,SE,137,5.8,5.8,70,0.00,CLR,,0.00,WeatherDisplay:10.37,2013-06-05 18:03:00,
2013-06-05 13:08:00,86.5,76.4,29.83,SE,139,6.3,6.3,72,0.00,CLR,,0.00,WeatherDisplay:10.37,2013-06-05 18:08:00,
2013-06-05 13:13:00,86.9,76.8,29.83,SE,145,5.8,5.8,72,0.00,CLR,,0.00,WeatherDisplay:10.37,2013-06-05 18:13:00,
2013-06-05 13:18:00,87.2,76.6,29.83,East,89,6.9,6.9,71,0.00,CLR,,0.00,WeatherDisplay:10.37,2013-06-05 18:18:00,
2013-06-05 13:23:00,87.3,76.7,29.82,SE,143,6.9,6.9,71,0.00,CLR,,0.00,WeatherDisplay:10.37,2013-06-05 18:23:00,
2013-06-05 13:28:00,86.7,75.7,29.83,ESE,106,5.8,5.8,70,0.00,CLR,,0.00,WeatherDisplay:10.37,2013-06-05 18:28:00,
2013-06-05 13:33:00,86.3,76.2,29.83,East,95,7.4,7.4,72,0.00,CLR,,0.00,WeatherDisplay:10.37,2013-06-05 18:33:00,
2013-06-05 13:38:00,86.7,76.2,29.83,SE,139,5.8,5.8,71,0.00,CLR,,0.00,WeatherDisplay:10.37,2013-06-05 18:38:00,
2013-06-05 13:43:00,86.8,76.3,29.82,ENE,58,9.2,9.2,71,0.00,CLR,,0.00,WeatherDisplay:10.37,2013-06-05 18:43:00,
2013-06-05 13:48:00,86.7,76.6,29.82,ESE,105,10.4,10.4,72,0.00,CLR,,0.00,WeatherDisplay:10.37,2013-06-05 18:48:00,
2013-06-05 13:53:00,86.6,76.9,29.82,East,100,6.9,6.9,73,0.00,CLR,,0.00,WeatherDisplay:10.37,2013-06-05 18:53:00,
2013-06-05 13:58:00,86.4,76.7,29.82,East,100,6.9,6.9,73,0.00,CLR,,0.00,WeatherDisplay:10.37,2013-06-05 18:58:00,
2013-06-05 14:03:00,86.1,76.8,29.82,South,172,10.4,10.4,74,0.00,CLR,,0.00,WeatherDisplay:10.37,2013-06-05 19:03:00,
2013-06-05 14:08:00,86.4,77.1,29.82,ENE,75,7.4,7.4,74,0.00,CLR,,0.00,WeatherDisplay:10.37,2013-06-05 19:08:00,
2013-06-05 14:13:00,86.2,76.5,29.82,SSE,155,5.8,5.8,73,0.00,CLR,,0.00,WeatherDisplay:10.37,2013-06-05 19:13:00,
2013-06-05 14:18:00,86.5,76.8,29.82,East,91,7.4,7.4,73,0.00,CLR,,0.00,WeatherDisplay:10.37,2013-06-05 19:18:00,
2013-06-05 14:23:00,86.0,76.7,29.82,ESE,114,10.5,10.5,74,0.00,CLR,,0.00,WeatherDisplay:10.37,2013-06-05 19:23:00,
2013-06-05 14:28:00,86.3,76.2,29.81,SE,134,11.5,11.5,72,0.00,CLR,,0.00,WeatherDisplay:10.37,2013-06-05 19:28:00,
2013-06-05 14:33:00,86.3,76.6,29.81,SE,135,9.2,9.2,73,0.00,CLR,,0.00,WeatherDisplay:10.37,2013-06-05 19:33:00,
2013-06-05 14:38:00,86.6,76.1,29.81,ENE,63,5.8,5.8,71,0.00,CLR,,0.00,WeatherDisplay:10.37,2013-06-05 19:38:00,
2013-06-05 14:43:00,86.6,76.1,29.81,SE,134,9.2,9.2,71,0.00,CLR,,0.00,WeatherDisplay:10.37,2013-06-05 19:43:00,
2013-06-05 14:48:00,86.7,75.7,29.81,East,98,9.2,9.2,70,0.00,CLR,,0.00,WeatherDisplay:10.37,2013-06-05 19:48:00,
2013-06-05 14:53:00,86.4,75.5,29.81,SE,138,4.6,4.6,70,0.00,CLR,,0.00,WeatherDisplay:10.37,2013-06-05 19:53:00,
2013-06-05 14:58:00,86.3,76.6,29.80,ENE,70,6.9,6.9,73,0.00,CLR,,0.00,WeatherDisplay:10.37,2013-06-05 19:58:00,
2013-06-05 15:03:00,86.4,76.3,29.80,ESE,123,9.2,9.2,72,0.00,CLR,,0.00,WeatherDisplay:10.37,2013-06-05 20:03:00,
2013-06-05 15:08:00,86.1,76.4,29.80,ESE,119,11.5,11.5,73,0.00,CLR,,0.00,WeatherDisplay:10.37,2013-06-05 20:08:00,
2013-06-05 15:13:00,85.9,76.6,29.80,ESE,116,11.5,11.5,74,0.00,CLR,,0.00,WeatherDisplay:10.37,2013-06-05 20:13:00,
2013-06-05 15:18:00,85.8,76.1,29.80,SE,129,11.5,11.5,73,0.00,CLR,,0.00,WeatherDisplay:10.37,2013-06-05 20:18:00,
2013-06-05 15:23:00,85.5,76.3,29.80,SE,139,11.5,11.5,74,0.00,CLR,,0.00,WeatherDisplay:10.37,2013-06-05 20:23:00,
2013-06-05 15:28:00,85.6,76.4,29.80,East,101,10.4,10.4,74,0.00,CLR,,0.00,WeatherDisplay:10.37,2013-06-05 20:28:00,
2013-06-05 15:33:00,85.9,76.6,29.80,SSE,163,10.4,10.4,74,0.00,CLR,,0.00,WeatherDisplay:10.37,2013-06-05 20:33:00,
2013-06-05 15:38:00,86.1,76.0,29.80,ESE,104,9.2,9.2,72,0.00,CLR,,0.00,WeatherDisplay:10.37,2013-06-05 20:38:00,
2013-06-05 15:43:00,86.7,77.0,29.80,East,84,9.2,9.2,73,0.00,CLR,,0.00,WeatherDisplay:10.37,2013-06-05 20:43:00,
2013-06-05 15:48:00,86.8,76.7,29.80,ESE,120,13.8,13.8,72,0.00,CLR,,0.00,WeatherDisplay:10.37,2013-06-05 20:48:00,
2013-06-05 15:53:00,86.4,76.7,29.80,SE,131,6.9,6.9,73,0.00,CLR,,0.00,WeatherDisplay:10.37,2013-06-05 20:53:00,
2013-06-05 15:58:00,86.3,76.6,29.80,ESE,118,11.5,11.5,73,0.00,CLR,,0.00,WeatherDisplay:10.37,2013-06-05 20:58:00,
2013-06-05 16:03:00,86.0,76.3,29.80,SE,134,9.2,9.2,73,0.00,CLR,,0.00,WeatherDisplay:10.37,2013-06-05 21:03:00,
2013-06-05 16:08:00,85.9,76.6,29.80,SSE,147,10.4,10.4,74,0.00,CLR,,0.00,WeatherDisplay:10.37,2013-06-05 21:08:00,
2013-06-05 16:13:00,86.0,76.7,29.80,SE,126,8.1,8.1,74,0.00,CLR,,0.00,WeatherDisplay:10.37,2013-06-05 21:13:00,
2013-06-05 16:18:00,86.0,76.3,29.79,SE,129,6.9,6.9,73,0.00,CLR,,0.00,WeatherDisplay:10.37,2013-06-05 21:18:00,
2013-06-05 16:23:00,86.2,76.5,29.79,ESE,121,10.4,10.4,73,0.00,CLR,,0.00,WeatherDisplay:10.37,2013-06-05 21:23:00,
2013-06-05 16:28:00,86.1,76.4,29.79,ESE,108,10.5,10.5,73,0.00,CLR,,0.00,WeatherDisplay:10.37,2013-06-05 21:28:00,
2013-06-05 16:33:00,85.7,76.0,29.79,ESE,110,11.5,11.5,73,0.00,CLR,,0.00,WeatherDisplay:10.37,2013-06-05 21:33:00,
2013-06-05 16:38:00,85.6,76.4,29.79,East,91,6.9,6.9,74,0.00,CLR,,0.00,WeatherDisplay:10.37,2013-06-05 21:38:00,
2013-06-05 16:43:00,85.7,75.6,29.79,ESE,115,11.5,11.5,72,0.00,CLR,,0.00,WeatherDisplay:10.37,2013-06-05 21:43:00,
2013-06-05 16:48:00,86.2,76.1,29.79,ESE,120,10.5,10.5,72,0.00,CLR,,0.00,WeatherDisplay:10.37,2013-06-05 21:48:00,
2013-06-05 16:53:00,86.0,75.5,29.79,SE,124,13.8,13.8,71,0.00,CLR,,0.00,WeatherDisplay:10.37,2013-06-05 21:53:00,
2013-06-05 16:58:00,85.9,76.2,29.79,ESE,108,6.9,6.9,73,0.00,CLR,,0.00,WeatherDisplay:10.37,2013-06-05 21:58:00,
2013-06-05 17:03:00,85.9,76.6,29.79,East,101,6.9,6.9,74,0.00,CLR,,0.00,WeatherDisplay:10.37,2013-06-05 22:03:00,
2013-06-05 17:08:00,85.5,77.1,29.79,ENE,62,6.9,6.9,76,0.00,CLR,,0.00,WeatherDisplay:10.37,2013-06-05 22:08:00,
2013-06-05 17:13:00,85.4,77.0,29.79,East,85,10.4,10.4,76,0.00,CLR,,0.00,WeatherDisplay:10.37,2013-06-05 22:13:00,
2013-06-05 17:18:00,85.0,77.4,29.79,ENE,68,10.4,10.4,78,0.00,CLR,,0.00,WeatherDisplay:10.37,2013-06-05 22:18:00,
2013-06-05 17:23:00,85.1,77.8,29.79,SE,124,11.5,11.5,79,0.00,CLR,,0.00,WeatherDisplay:10.37,2013-06-05 22:23:00,
2013-06-05 17:28:00,84.9,77.7,29.78,ENE,65,10.4,10.4,79,0.00,CLR,,0.00,WeatherDisplay:10.37,2013-06-05 22:28:00,
2013-06-05 17:33:00,84.6,77.4,29.78,NE,56,13.8,13.8,79,0.00,CLR,,0.00,WeatherDisplay:10.37,2013-06-05 22:33:00,
2013-06-05 17:38:00,84.6,77.4,29.78,East,99,6.9,6.9,79,0.00,CLR,,0.00,WeatherDisplay:10.37,2013-06-05 22:38:00,
2013-06-05 17:43:00,84.9,77.7,29.78,ENE,60,8.1,8.5,79,0.00,CLR,,0.00,WeatherDisplay:10.37,2013-06-05 22:43:00,
2013-06-05 17:48:00,84.7,77.5,29.78,East,91,11.5,11.5,79,0.00,CLR,,0.00,WeatherDisplay:10.37,2013-06-05 22:48:00,
2013-06-05 17:53:00,84.6,77.4,29.78,East,86,12.7,12.7,79,0.00,CLR,,0.00,WeatherDisplay:10.37,2013-06-05 22:53:00,
2013-06-05 17:58:00,84.1,76.9,29.78,ENE,66,16.1,16.1,79,0.00,CLR,,0.00,WeatherDisplay:10.37,2013-06-05 22:58:00,
2013-06-05 18:03:00,83.9,77.1,29.77,ENE,66,9.2,9.2,80,0.00,CLR,,0.00,WeatherDisplay:10.37,2013-06-05 23:03:00,
2013-06-05 18:08:00,83.8,76.6,29.77,ESE,113,6.9,6.9,79,0.00,CLR,,0.00,WeatherDisplay:10.37,2013-06-05 23:08:00,
2013-06-05 18:13:00,83.8,76.6,29.77,East,100,12.7,12.7,79,0.00,CLR,,0.00,WeatherDisplay:10.37,2013-06-05 23:13:00,
2013-06-05 18:18:00,83.7,76.5,29.77,ENE,78,10.4,10.4,79,0.00,CLR,,0.00,WeatherDisplay:10.37,2013-06-05 23:18:00,
2013-06-05 18:23:00,83.7,76.5,29.77,ESE,119,9.2,9.2,79,0.00,CLR,,0.00,WeatherDisplay:10.37,2013-06-05 23:23:00,
2013-06-05 18:28:00,83.4,75.4,29.77,East,95,10.4,10.4,77,0.00,CLR,,0.00,WeatherDisplay:10.37,2013-06-05 23:28:00,
2013-06-05 18:33:00,83.4,75.8,29.77,East,79,11.6,11.6,78,0.00,CLR,,0.00,WeatherDisplay:10.37,2013-06-05 23:33:00,
2013-06-05 18:38:00,83.2,75.2,29.77,East,88,12.7,12.7,77,0.00,CLR,,0.00,WeatherDisplay:10.37,2013-06-05 23:38:00,
2013-06-05 18:43:00,83.1,75.9,29.77,East,97,8.1,8.1,79,0.00,CLR,,0.00,WeatherDisplay:10.37,2013-06-05 23:43:00,
2013-06-05 18:48:00,83.2,75.6,29.77,East,83,12.7,12.7,78,0.00,CLR,,0.00,WeatherDisplay:10.37,2013-06-05 23:48:00,
2013-06-05 18:53:00,83.1,75.1,29.77,ESE,105,11.5,11.5,77,0.00,CLR,,0.00,WeatherDisplay:10.37,2013-06-05 23:53:00,
2013-06-05 18:58:00,83.0,75.0,29.77,East,86,9.2,9.2,77,0.00,CLR,,0.00,WeatherDisplay:10.37,2013-06-05 23:58:00,
2013-06-05 19:03:00,82.9,74.9,29.77,ENE,75,12.7,12.7,77,0.00,CLR,,0.00,WeatherDisplay:10.37,2013-06-06 00:03:00,
2013-06-05 19:08:00,82.9,75.3,29.77,East,79,8.1,8.1,78,0.00,CLR,,0.00,WeatherDisplay:10.37,2013-06-06 00:08:00,
2013-06-05 19:13:00,82.7,75.1,29.77,East,96,8.1,8.1,78,0.00,CLR,,0.00,WeatherDisplay:10.37,2013-06-06 00:13:00,
2013-06-05 19:18:00,82.7,75.5,29.76,ENE,78,5.8,5.8,79,0.00,CLR,,0.00,WeatherDisplay:10.37,2013-06-06 00:18:00,
2013-06-05 19:23:00,82.6,75.4,29.77,East,101,10.4,10.4,79,0.00,CLR,,0.00,WeatherDisplay:10.37,2013-06-06 00:23:00,
2013-06-05 19:28:00,82.4,75.6,29.77,ENE,71,9.2,9.2,80,0.00,CLR,,0.00,WeatherDisplay:10.37,2013-06-06 00:28:00,
2013-06-05 19:33:00,82.4,76.0,29.77,ESE,122,7.4,7.4,81,0.00,CLR,,0.00,WeatherDisplay:10.37,2013-06-06 00:33:00,
2013-06-05 19:38:00,82.1,75.7,29.76,ESE,113,4.6,4.6,81,0.00,CLR,,0.00,WeatherDisplay:10.37,2013-06-06 00:38:00,
2013-06-05 19:43:00,81.8,75.8,29.76,ESE,122,5.8,5.8,82,0.00,CLR,,0.00,WeatherDisplay:10.37,2013-06-06 00:43:00,
2013-06-05 19:48:00,81.5,75.1,29.76,SE,139,9.2,9.2,81,0.00,CLR,,0.00,WeatherDisplay:10.37,2013-06-06 00:48:00,
2013-06-05 19:53:00,81.3,75.6,29.76,East,80,9.2,9.2,83,0.00,CLR,,0.00,WeatherDisplay:10.37,2013-06-06 00:53:00,
2013-06-05 19:58:00,81.1,75.4,29.76,ESE,103,5.8,5.8,83,0.00,CLR,,0.00,WeatherDisplay:10.37,2013-06-06 00:58:00,
2013-06-05 20:03:00,80.9,76.0,29.76,ESE,120,5.8,5.8,85,0.00,CLR,,0.00,WeatherDisplay:10.37,2013-06-06 01:03:00,
2013-06-05 20:08:00,80.6,75.7,29.76,ESE,111,9.2,9.2,85,0.00,CLR,,0.00,WeatherDisplay:10.37,2013-06-06 01:08:00,
2013-06-05 20:13:00,80.4,75.5,29.76,ESE,115,6.9,6.9,85,0.00,CLR,,0.00,WeatherDisplay:10.37,2013-06-06 01:13:00,
2013-06-05 20:18:00,80.2,75.3,29.76,SE,138,10.4,10.4,85,0.00,CLR,,0.00,WeatherDisplay:10.37,2013-06-06 01:18:00,
2013-06-05 20:23:00,80.1,75.5,29.76,East,95,5.8,5.8,86,0.00,CLR,,0.00,WeatherDisplay:10.37,2013-06-06 01:23:00,
2013-06-05 20:28:00,79.9,75.3,29.76,ESE,103,5.8,5.8,86,0.00,CLR,,0.00,WeatherDisplay:10.37,2013-06-06 01:28:00,
2013-06-05 20:33:00,79.8,75.6,29.76,ESE,118,4.6,4.6,87,0.00,CLR,,0.00,WeatherDisplay:10.37,2013-06-06 01:33:00,
2013-06-05 20:38:00,79.7,75.5,29.76,SSE,152,6.3,6.3,87,0.00,CLR,,0.00,WeatherDisplay:10.37,2013-06-06 01:38:00,
2013-06-05 20:43:00,79.6,75.4,29.76,SE,125,4.2,4.2,87,0.00,CLR,,0.00,WeatherDisplay:10.37,2013-06-06 01:43:00,
2013-06-05 20:48:00,79.6,75.4,29.76,East,98,5.8,5.8,87,0.00,CLR,,0.00,WeatherDisplay:10.37,2013-06-06 01:48:00,
2013-06-05 20:53:00,79.4,75.2,29.76,ESE,113,4.6,4.6,87,0.00,CLR,,0.00,WeatherDisplay:10.37,2013-06-06 01:53:00,
2013-06-05 20:58:00,79.3,75.4,29.76,ESE,113,3.5,3.5,88,0.00,CLR,,0.00,WeatherDisplay:10.37,2013-06-06 01:58:00,
2013-06-05 21:03:00,79.2,75.3,29.76,ESE,112,3.5,3.5,88,0.00,CLR,,0.00,WeatherDisplay:10.37,2013-06-06 02:03:00,
2013-06-05 21:08:00,79.1,75.2,29.77,ESE,116,4.6,4.6,88,0.00,CLR,,0.00,WeatherDisplay:10.37,2013-06-06 02:08:00,
2013-06-05 21:13:00,79.0,75.1,29.77,ESE,107,5.8,5.8,88,0.00,CLR,,0.00,WeatherDisplay:10.37,2013-06-06 02:13:00,
2013-06-05 21:18:00,79.0,75.5,29.77,SE,129,4.6,4.6,89,0.00,CLR,,0.00,WeatherDisplay:10.37,2013-06-06 02:18:00,
2013-06-05 21:23:00,78.9,75.4,29.77,ESE,115,3.5,3.5,89,0.00,CLR,,0.00,WeatherDisplay:10.37,2013-06-06 02:23:00,
2013-06-05 21:28:00,78.9,75.4,29.77,SE,129,6.9,6.9,89,0.00,CLR,,0.00,WeatherDisplay:10.37,2013-06-06 02:28:00,
2013-06-05 21:33:00,79.0,75.5,29.77,SE,129,3.5,3.5,89,0.00,CLR,,0.00,WeatherDisplay:10.37,2013-06-06 02:33:00,
2013-06-05 21:38:00,78.9,75.4,29.77,ESE,105,5.8,5.8,89,0.00,CLR,,0.00,WeatherDisplay:10.37,2013-06-06 02:38:00,
2013-06-05 21:43:00,79.0,75.5,29.77,ESE,116,5.8,5.8,89,0.00,CLR,,0.00,WeatherDisplay:10.37,2013-06-06 02:43:00,
2013-06-05 21:48:00,79.0,75.5,29.77,SE,127,4.6,4.6,89,0.00,CLR,,0.00,WeatherDisplay:10.37,2013-06-06 02:48:00,
2013-06-05 21:53:00,79.0,75.5,29.77,East,91,5.8,5.8,89,0.00,CLR,,0.00,WeatherDisplay:10.37,2013-06-06 02:53:00,
2013-06-05 21:58:00,78.8,75.3,29.77,ESE,120,4.6,4.6,89,0.00,CLR,,0.00,WeatherDisplay:10.37,2013-06-06 02:58:00,
2013-06-05 22:03:00,78.8,75.6,29.77,ESE,117,5.8,5.8,90,0.00,CLR,,0.00,WeatherDisplay:10.37,2013-06-06 03:03:00,
2013-06-05 22:08:00,78.8,75.6,29.77,SE,142,6.9,6.9,90,0.00,CLR,,0.00,WeatherDisplay:10.37,2013-06-06 03:08:00,
2013-06-05 22:13:00,78.8,75.9,29.77,ESE,115,3.5,3.5,91,0.00,CLR,,0.00,WeatherDisplay:10.37,2013-06-06 03:13:00,
2013-06-05 22:18:00,78.7,75.5,29.77,ESE,114,6.9,6.9,90,0.00,CLR,,0.00,WeatherDisplay:10.37,2013-06-06 03:18:00,
2013-06-05 22:23:00,78.8,75.9,29.77,SE,140,5.8,5.8,91,0.00,CLR,,0.00,WeatherDisplay:10.37,2013-06-06 03:23:00,
2013-06-05 22:28:00,78.9,75.7,29.77,East,96,5.8,5.8,90,0.00,CLR,,0.00,WeatherDisplay:10.37,2013-06-06 03:28:00,
2013-06-05 22:33:00,78.8,75.6,29.77,SE,141,6.9,6.9,90,0.00,CLR,,0.00,WeatherDisplay:10.37,2013-06-06 03:33:00,
2013-06-05 22:38:00,78.7,75.5,29.77,ESE,122,5.8,5.8,90,0.00,CLR,,0.00,WeatherDisplay:10.37,2013-06-06 03:38:00,
2013-06-05 22:43:00,78.8,75.9,29.76,SE,132,10.4,10.4,91,0.00,CLR,,0.00,WeatherDisplay:10.37,2013-06-06 03:43:00,
2013-06-05 22:48:00,78.8,75.9,29.76,SE,141,5.8,5.8,91,0.00,CLR,,0.00,WeatherDisplay:10.37,2013-06-06 03:48:00,
2013-06-05 22:53:00,78.9,76.0,29.76,SE,146,6.9,6.9,91,0.00,CLR,,0.00,WeatherDisplay:10.37,2013-06-06 03:53:00,
2013-06-05 22:58:00,78.9,76.0,29.76,SE,131,5.8,5.8,91,0.00,CLR,,0.00,WeatherDisplay:10.37,2013-06-06 03:58:00,
2013-06-05 23:01:00,78.9,76.0,29.76,SE,131,7.4,7.4,91,0.00,CLR,,0.00,WeatherDisplay:10.37,2013-06-06 04:01:00,
2013-06-05 23:02:00,78.9,76.0,29.76,ESE,122,6.9,6.9,91,0.00,CLR,,0.00,WeatherDisplay:10.37,2013-06-06 04:02:00,
2013-06-05 23:07:00,78.9,76.0,29.77,SE,137,6.9,6.9,91,0.00,CLR,,0.00,WeatherDisplay:10.37,2013-06-06 04:07:00,
2013-06-05 23:12:00,78.9,76.0,29.76,SE,129,11.5,11.5,91,0.00,CLR,,0.00,WeatherDisplay:10.37,2013-06-06 04:12:00,
2013-06-05 23:17:00,78.8,75.9,29.76,SE,129,11.5,11.5,91,0.00,CLR,,0.00,WeatherDisplay:10.37,2013-06-06 04:17:00,
2013-06-05 23:22:00,78.9,76.0,29.76,SE,146,8.1,8.1,91,0.00,CLR,,0.00,WeatherDisplay:10.37,2013-06-06 04:22:00,
2013-06-05 23:27:00,78.9,76.0,29.76,SE,126,6.9,6.9,91,0.00,CLR,,0.00,WeatherDisplay:10.37,2013-06-06 04:27:00,
2013-06-05 23:32:00,78.8,75.9,29.76,SE,125,6.9,6.9,91,0.00,CLR,,0.00,WeatherDisplay:10.37,2013-06-06 04:32:00,
2013-06-05 23:37:00,78.9,76.0,29.76,SE,129,9.2,9.2,91,0.00,CLR,,0.00,WeatherDisplay:10.37,2013-06-06 04:37:00,
2013-06-05 23:42:00,78.9,76.0,29.77,SSE,151,11.5,11.5,91,0.00,CLR,,0.00,WeatherDisplay:10.37,2013-06-06 04:42:00,
2013-06-05 23:47:00,79.0,76.1,29.77,SE,131,5.8,5.8,91,0.00,CLR,,0.00,WeatherDisplay:10.37,2013-06-06 04:47:00,
2013-06-05 23:52:00,78.9,76.0,29.76,SE,134,9.2,9.2,91,0.00,CLR,,0.00,WeatherDisplay:10.37,2013-06-06 04:52:00,
2013-06-05 23:57:00,78.9,76.0,29.76,SE,124,11.5,11.5,91,0.00,CLR,,0.00,WeatherDisplay:10.37,2013-06-06 04:57:00,